User: anonymous   Login
Location: Adamstown South Public School
(32.9318°S, 151.7012°E)
Time: 17:25:03
(UTC+00:00)
Language:

Cosmos 1725 Rocket - Orbit

View from above orbital plane
View from above orbital plane
View from above satellite
View from above satellite

Ground track
Ground track

The orbit data is extracted from the following two-line orbital elements,

1 16494U 86005B   21136.95373963  .00000078  00000-0  64412-4 0  9997
2 16494  82.9311  88.3167 0018996 195.9408 228.3803 13.76517697774356
Epoch (UTC): 16 May 2021 22:53:23
Eccentricity: 0.0018996
inclination: 82.9311°
perigee height: 962 km
apogee height: 990 km
right ascension of ascending node: 88.3167°
argument of perigee: 195.9408°
revolutions per day: 13.76517697
mean anomaly at epoch: 228.3803°
orbit number at epoch: 77435

The dashed part of the orbit path shows where the satellite is in the earth's shadow,  

DLR